Dewpoint
24 23 28 30 30 32 56 61 62 62 65 64 62 63 62 63 63 62 62 65 63 62 62 60 60 58 55 56 56 57 55 56 59 62 63 63 64 64 65 64 63 62 63
21 25 26 31 29 32 40 60 62 62 65 64 63 63 62 63 62 64 63 65 64 63 63 61 59 59 57 57 57 56 55 56 60 60 61 60 62 64 64 64 64 64 65
11 16 27 30 35 34 40 58 61 63 64 64 64 63 63 63 63 63 64 65 65 64 63 62 61 60 58 58 59 57 55 55 59 62 60 58 57 61 61 62 61 61 59
10 14 16 28 33 38 40 42 61 63 64 65 64 63 62 61 62 62 63 64 65 64 64 63 62 61 59 58 60 59 58 58 58 60 62 60 60 58 56 56 55 56 56
11 13 15 19 26 31 37 41 61 63 64 65 64 64 63 63 62 63 62 65 66 65 65 64 62 63 60 59 59 59 58 59 58 59 59 61 60 59 56 53 52 51 52
39 39 16 17 21 26 32 39 59 62 64 65 65 64 64 62 62 62 63 64 65 66 66 65 64 61 63 60 62 61 60 58 59 59 60 59 60 60 59 57 51 50 49
37 39 41 42 39 22 27 32 59 60 65 65 65 64 65 64 62 62 63 64 64 65 65 66 65 64 62 62 61 61 62 61 60 59 60 61 59 60 60 58 53 52 48
36 38 39 42 44 45 34 30 57 60 63 65 65 65 64 65 63 63 63 65 64 64 65 66 66 65 63 64 62 63 62 64 63 61 59 62 61 60 60 58 54 53 48
35 37 40 42 43 44 45 44 36 60 61 64 65 65 64 65 64 64 64 64 64 65 64 67 66 66 65 63 63 62 64 63 65 64 62 59 63 62 61 60 57 54 50
36 38 40 42 44 44 46 47 42 44 61 61 65 65 66 65 65 64 64 64 64 65 64 65 67 66 66 65 64 63 63 64 65 65 63 64 61 63 62 62 60 57 54
37 39 41 41 43 46 46 45 44 41 57 62 62 64 65 66 65 65 64 64 64 64 65 64 67 66 66 66 65 64 63 63 64 65 65 63 64 61 62 62 62 59 56
37 39 40 41 43 43 47 48 49 52 51 61 61 64 65 66 65 65 65 65 64 64 64 65 65 66 66 66 66 65 63 63 63 64 64 64 64 64 63 61 62 60 57
37 38 40 40 41 42 46 47 48 51 55 55 61 62 64 65 66 66 66 66 65 65 64 65 64 66 66 66 66 66 65 64 63 63 64 64 64 64 64 63 61 62 60
38 38 39 39 40 41 43 44 45 46 50 55 58 60 63 64 66 66 66 66 66 65 65 64 65 65 66 66 66 66 65 65 64 63 63 64 63 64 64 64 63 63 63
38 38 38 39 40 39 42 43 44 44 45 49 55 58 59 64 66 67 67 67 67 66 65 65 65 65 66 66 66 66 66 65 64 64 64 63 64 63 63 64 64 64 63
39 39 38 39 40 39 39 41 42 42 43 44 46 50 54 57 62 65 66 66 67 66 66 65 65 65 64 64 64 65 65 65 65 64 64 64 62 61 60 61 63 65 63
32 39 40 40 41 41 41 39 41 42 42 43 43 45 48 53 55 57 64 64 66 67 66 66 66 65 65 63 62 62 66 65 65 65 65 64 64 62 62 58 59 62 62
30 30 39 42 42 42 42 42 40 41 41 41 43 43 45 48 52 53 55 60 65 66 66 66 66 66 66 64 61 60 64 66 66 66 66 65 65 64 64 63 59 61 59
28 27 27 39 42 40 43 43 39 40 40 40 41 42 44 45 47 48 51 55 57 64 66 66 66 66 66 64 63 60 63 65 66 66 66 66 65 64 63 61 59 56 51
21 23 25 27 32 36 35 39 39 38 39 38 39 42 43 44 46 46 47 50 53 56 58 65 66 66 66 64 61 60 64 64 65 65 65 64 64 61 60 61 57 54 48
20 23 24 26 27 29 30 32 35 37 38 39 38 39 41 43 43 47 45 47 48 50 53 56 64 66 65 64 59 59 65 64 63 63 62 63 61 59 57 61 55 56 45
21 23 24 25 28 28 28 28 29 33 36 37 38 37 39 42 42 44 46 45 45 45 45 46 50 57 64 64 58 59 62 63 63 61 61 57 56 55 55 56 54 50 44
23 24 25 25 26 27 27 27 28 31 32 35 36 37 38 41 41 42 43 44 43 42 41 41 42 43 44 48 47 54 58 59 62 60 57 54 53 52 50 52 48 43 43
24 24 25 26 26 27 27 27 28 30 31 32 34 36 37 37 38 41 41 41 41 40 40 40 40 40 41 42 43 44 46 45 49 49 48 48 47 45 46 41 40 43 43
25 25 26 26 26 27 28 28 28 30 30 31 32 35 35 35 37 39 40 40 41 39 39 39 38 38 39 40 39 39 42 43 42 41 41 41 40 40 39 39 39 39 39
26 26 26 26 27 27 28 29 30 31 31 31 32 33 34 36 35 35 35 38 39 39 40 39 38 38 38 38 38 39 39 40 38 41 41 40 39 39 38 37 37 37 38
Wind_Speed
25 25 21 23 29 28 22 34 36 33 31 26 29 23 26 25 21 22 22 27 23 22 20 17 17 18 16 17 18 14 17 16 17 11 13 12 9 8 8 6 8 5 2
30 27 23 21 25 22 21 34 37 37 33 29 28 23 25 22 23 19 22 25 26 24 19 20 16 20 16 18 20 17 16 16 16 13 13 7 3 4 5 5 4 8 9
32 34 28 25 23 26 20 29 36 37 35 33 26 26 21 19 23 23 22 24 29 28 25 24 16 22 19 19 20 20 20 18 17 16 10 7 6 12 2 6 6 9 9
32 30 34 32 23 19 21 16 35 36 35 34 31 32 28 28 25 26 21 25 29 29 27 25 25 20 22 19 18 18 19 17 18 12 14 14 12 6 6 3 3 6 8
35 33 36 34 31 26 22 22 30 35 36 35 32 30 30 24 24 25 27 25 25 27 26 26 27 18 23 20 22 22 22 19 18 17 16 14 11 16 7 7 9 4 5
30 32 33 34 32 29 25 26 27 30 34 35 36 35 34 32 29 28 27 27 25 24 29 28 25 28 20 25 20 22 25 24 20 17 19 18 18 16 9 6 9 12 9
27 27 29 25 26 34 33 24 26 30 32 34 36 36 35 37 31 32 29 28 26 25 28 30 31 27 26 26 23 25 23 26 24 24 16 20 21 17 15 13 10 7 4
23 25 28 29 29 31 30 28 27 31 32 36 38 37 34 30 33 29 29 28 29 31 27 31 29 31 30 25 27 22 25 24 25 25 24 15 21 20 17 14 14 8 4
26 29 32 30 33 33 37 33 27 37 34 36 35 37 38 36 33 30 30 30 28 26 31 29 33 31 30 31 28 27 26 28 27 25 24 26 16 18 18 18 19 13 13
28 29 30 33 34 38 37 36 29 26 39 34 34 33 37 39 30 32 28 30 29 29 30 30 32 31 31 30 30 28 27 28 27 26 27 25 26 17 19 18 18 19 15
28 29 28 32 37 40 26 30 29 26 23 33 30 34 35 35 33 27 31 30 28 30 28 34 31 35 32 31 32 31 28 30 29 28 29 32 26 27 20 20 17 20 19
24 25 28 33 33 38 23 24 28 30 21 29 30 26 30 32 32 32 29 28 29 29 29 32 31 32 33 33 33 33 30 32 32 33 29 30 27 28 26 24 24 20 22
22 24 27 31 29 30 26 28 30 33 32 18 30 28 27 31 30 33 33 29 27 28 30 28 33 32 34 34 35 33 33 33 34 32 32 31 28 30 28 28 28 24 20
18 21 24 29 25 25 27 28 30 30 31 29 24 17 29 32 34 33 31 32 31 30 30 32 30 33 33 34 33 33 33 33 32 30 32 31 32 33 32 30 30 24 23
15 19 22 24 29 28 26 25 28 30 30 27 24 21 21 22 29 27 27 29 31 29 31 30 31 29 31 30 33 33 35 34 33 31 30 32 32 36 33 28 29 27 24
15 10 17 24 28 29 28 27 27 28 27 26 26 25 23 23 17 27 28 29 30 33 30 30 32 29 30 32 39 35 32 32 32 32 32 31 34 35 38 37 32 30 29
15 14 16 12 16 24 26 27 27 26 27 26 26 25 23 21 20 20 25 30 29 29 31 30 30 32 30 33 39 43 31 31 32 31 29 28 27 30 28 34 35 34 34
17 15 9 6 8 12 19 21 25 25 26 28 28 28 27 25 23 21 18 14 27 27 27 27 26 27 29 30 35 39 35 28 27 29 30 29 27 26 28 24 26 25 28
13 15 17 7 2 12 16 15 19 22 23 26 28 28 27 26 25 24 20 18 20 17 25 24 24 27 27 29 34 32 27 30 28 22 25 28 26 24 24 23 22 17 15
14 16 17 18 10 9 14 19 17 19 22 23 23 24 25 25 23 24 25 21 18 16 19 15 20 26 26 25 31 35 26 28 26 20 21 28 26 23 28 24 23 27 25
16 15 15 15 17 14 12 11 14 17 20 22 23 21 22 23 23 21 23 22 20 18 16 17 13 21 22 21 28 36 27 26 22 24 22 21 28 28 33 34 27 31 23
16 17 16 16 16 16 14 14 14 13 16 19 21 21 21 18 20 22 18 19 19 17 17 17 17 17 10 19 27 33 36 24 23 24 21 19 25 31 36 37 30 27 26
16 15 15 16 14 16 17 16 15 17 18 17 20 22 23 18 19 20 20 18 16 15 16 15 15 18 19 17 15 26 35 32 25 21 23 22 27 32 33 35 30 33 26
16 16 15 16 16 17 17 17 17 16 17 16 16 18 19 24 20 16 15 17 16 17 16 16 16 16 17 17 17 15 11 14 17 7 12 19 19 20 20 19 28 24 25
17 15 15 16 16 16 16 18 18 17 17 18 15 15 18 20 20 16 14 16 13 14 13 14 13 16 18 17 18 18 16 11 6 7 10 12 14 17 16 16 18 16 18
17 16 16 17 17 17 17 17 17 18 19 17 16 12 13 16 18 19 23 14 11 18 8 10 9 11 11 18 16 15 13 10 13 8 13 16 19 23 23 23 21 17 20
Wind_Direction
278 267 238 225 232 246 192 177 180 181 175 185 195 197 202 189 192 190 182 175 187 198 187 204 182 191 188 178 184 178 196 209 213 115 116 93 81 86 61 70 141 120 71
284 283 270 254 244 248 224 183 181 182 180 186 193 205 199 196 195 191 188 176 183 189 189 202 196 184 191 184 186 193 192 203 215 164 146 147 97 83 113 94 50 98 77
268 276 279 272 240 228 229 191 184 184 184 184 192 201 198 208 193 203 188 181 182 187 198 198 211 181 193 193 187 190 193 196 221 192 168 152 183 139 113 125 89 96 101
259 267 271 274 271 284 220 233 185 184 186 183 192 195 204 201 202 198 196 186 184 190 193 195 211 186 192 196 187 190 197 192 211 220 215 171 142 165 159 176 132 100 137
240 241 260 269 270 273 288 217 191 183 186 186 191 196 204 208 205 197 199 189 187 190 194 198 203 210 189 200 189 189 198 214 204 210 207 200 178 163 145 175 198 190 187
357 345 239 247 267 268 269 282 190 186 183 189 190 197 204 210 204 199 197 193 190 192 197 199 200 208 195 197 192 193 196 207 216 213 210 211 211 196 188 159 164 189 189
354 347 338 342 315 249 263 267 206 190 181 190 193 198 204 207 218 201 196 192 195 196 205 201 201 201 207 194 200 195 200 203 212 222 218 207 222 226 204 192 158 164 144
350 343 335 331 331 324 274 243 226 197 189 188 196 202 205 214 215 207 196 195 201 206 202 204 205 204 200 199 197 200 202 201 210 212 225 224 211 222 215 202 160 163 145
350 343 337 333 330 328 316 310 249 197 200 192 193 198 207 215 212 216 197 201 201 201 207 204 206 203 202 202 199 203 202 204 203 214 212 226 233 210 220 217 175 175 189
345 342 337 334 330 324 308 301 287 249 194 201 195 199 202 211 215 211 207 201 202 201 198 209 203 206 204 203 203 206 208 206 208 207 214 214 222 229 211 214 198 196 192
344 337 337 337 329 321 308 316 301 245 227 197 206 197 207 209 212 215 215 207 202 203 197 202 201 204 205 204 204 209 208 210 211 211 211 217 213 219 223 211 214 196 190
343 340 343 341 334 327 326 334 333 342 221 199 203 206 202 206 208 215 214 216 208 204 203 198 204 202 205 205 208 208 209 212 213 214 215 218 215 220 219 222 216 198 194
354 353 356 343 333 345 358 4 0 352 350 317 196 207 207 210 210 214 215 213 216 210 206 202 203 203 204 205 209 210 212 214 216 215 215 218 213 219 218 218 223 215 194
350 353 352 344 339 352 2 6 1 357 350 343 350 229 203 207 210 211 212 216 213 213 210 207 203 206 206 205 207 210 213 217 221 217 219 218 216 218 217 218 220 218 207
353 353 347 342 351 356 2 4 4 360 356 357 0 356 329 236 209 212 208 211 217 216 215 212 208 208 207 207 207 210 211 215 218 219 219 220 219 221 217 215 218 215 207
354 339 338 5 352 1 6 5 3 2 359 2 6 2 349 346 253 218 217 216 214 218 213 213 213 209 212 208 207 208 213 214 217 219 221 223 222 223 220 218 216 211 201
348 360 347 331 353 355 2 3 359 359 4 1 5 5 5 348 342 341 237 218 215 213 215 212 212 214 217 214 209 208 211 212 216 219 219 222 225 222 222 226 220 212 201
352 345 350 339 309 341 358 356 360 359 1 0 2 359 2 2 350 339 337 306 218 210 211 212 212 215 216 217 215 211 212 217 217 217 220 219 220 218 216 214 218 216 199
329 349 341 312 311 358 350 352 6 356 359 357 355 355 352 355 1 354 339 334 328 249 209 211 214 220 223 214 215 210 213 220 223 219 216 217 217 211 198 196 202 195 191
349 349 349 343 30 44 18 350 358 350 352 352 345 347 347 349 349 355 350 340 331 320 344 229 218 220 225 216 210 206 209 219 222 219 222 222 217 204 190 198 188 199 197
348 356 350 2 5 6 12 347 344 353 344 338 344 339 347 343 344 346 353 349 350 349 346 334 275 225 226 221 205 204 204 214 217 221 223 223 223 202 195 197 192 205 172
351 360 351 359 359 1 355 355 355 2 341 337 330 342 341 335 348 345 350 352 357 7 3 352 334 340 274 212 205 206 209 210 216 222 222 216 207 201 196 196 197 177 161
353 349 350 348 354 355 350 355 356 3 348 341 339 337 332 346 346 348 348 348 356 4 5 0 356 341 335 340 348 221 214 221 219 221 213 210 204 200 199 195 175 161 167
349 338 345 345 346 355 348 348 358 355 339 336 339 332 340 339 339 339 344 343 351 350 358 1 357 345 342 346 345 335 315 272 238 236 199 195 194 192 188 173 167 173 177
335 339 344 344 348 347 344 346 351 350 341 333 340 339 346 330 327 336 335 328 336 331 338 350 344 349 346 335 322 315 304 288 264 156 156 170 174 180 174 174 181 178 174
327 340 341 336 343 338 344 345 347 345 340 334 336 328 340 337 344 332 324 325 306 318 323 342 347 331 315 320 323 326 311 263 179 187 212 206 192 189 185 185 186 183 179